Find Starlink 3079

NORAD ID: 49433 Int'l Des: 2021-104 Owner: SPXS Country: US Constellation: starlink operational
LEOCIRCULAR

Current View

Loading 3D Globe...

About Starlink 3079

Description loading...

Upcoming Passes

Passes for default location (London). Set your location on the main map for personalized predictions.

Altitude History

Loading altitude history...

Two-Line Element Set

1 49433U 21104AB 26150.17433162 .00000844 00000-0 71112-4 0 9994
2 49433 53.1976 203.3158 0001288 85.4337 274.6801 15.08836822252300
Epoch: May 30, 2026 • Age: 9 hours

Current Status

Altitude 540.6 km
Velocity 7.60 km/s
Sub-Earth Point 27.46°N, 80.67°W
Launch Date Nov 13, 2021
Age 4.5 years
Type internet

Technical Details

Classification Payload
Mass 290.00 kg
Dry Mass 270.00 kg
Total Mass 290.00 kg
Length 0.20 m
Diameter 2.80 m
Span 9.00 m
Shape Box + pan
Manufacturer SPXS
Bus Type Starlink
Phase Status In Orbit
Owner/State SPXS/US

Most Searched